Location: Coed Ely
(51.5661°N, 3.4150°W)
Time: 02:28:08
(UTC+00:00)

Aureole 3 Rocket - Pass Details

Date: 28 January 2021
Orbit: 398 x 1740 km, 82.5° (Epoch: 28 February)

Event Time Altitude Azimuth Distance (km) Brightness Sun altitude
Rises 17:36:42 0° 360° (N) 2,339 5.8 -6.6°
Reaches altitude 10° 17:38:50 10° 15° (NNE) 1,516 4.7 -6.9°
Maximum altitude 17:41:32 25° 73° (ENE) 972 3.5 -7.3°
Drops below altitude 10° 17:44:40 10° 131° (SE) 1,765 5.1 -7.7°
Sets 17:47:21 0° 144° (SE) 2,835 6.3 -8.1°
